Cloud_Cover
75 48 87 85 60 21 5 5 75 82 61 15 8 13 5 28 98 100 100 100 100 42 57 5 6 63 100 100 100 100 100 100 100 100 100 100 95 14 63 89 65 68 52
90 99 96 76 61 99 95 32 6 91 100 100 59 5 5 5 11 25 43 81 100 100 92 31 20 42 57 60 95 90 79 77 100 99 80 55 84 90 53 68 88 94 100
86 95 100 100 33 48 92 100 26 5 99 100 99 99 68 22 6 5 5 5 100 12 5 7 27 61 65 66 6 42 94 95 83 62 62 56 68 73 10 32 96 95 100
66 97 64 100 100 100 100 100 92 63 77 100 100 98 100 78 100 32 6 14 28 58 5 5 9 5 33 67 9 14 31 6 11 31 87 99 92 59 64 84 100 100 100
100 100 100 100 100 100 100 100 100 100 100 100 95 96 100 100 84 56 92 40 40 14 9 16 19 13 5 8 76 49 5 5 5 5 5 34 48 23 61 100 100 100 100
100 100 100 100 97 100 94 100 100 100 100 100 84 100 76 100 77 44 96 34 40 6 5 5 5 6 26 14 6 25 5 10 5 5 5 5 5 36 83 100 100 100 100
100 100 100 100 100 99 100 100 100 100 100 100 100 97 100 87 72 69 79 10 5 5 5 5 5 5 5 27 34 17 32 37 56 19 5 5 69 87 100 100 100 100 100
100 100 100 100 100 100 99 100 100 100 100 100 100 50 90 72 75 100 15 15 5 19 5 3 5 5 5 43 21 17 5 17 17 35 15 13 98 100 100 100 100 92 76
100 100 100 100 100 100 100 100 100 90 100 82 51 5 54 69 100 98 100 32 39 48 92 9 5 5 5 5 9 5 5 5 5 5 5 21 62 100 100 46 5 96 100
100 100 100 100 100 100 100 100 100 100 100 100 100 55 83 20 100 100 91 100 100 5 89 100 42 5 5 5 5 5 5 5 5 5 5 5 5 88 61 7 10 16 5
100 100 100 100 100 100 100 100 100 100 100 100 100 100 100 100 99 100 100 100 100 74 19 100 100 100 12 9 5 5 5 5 5 5 24 22 73 100 90 5 5 5 5
100 100 100 100 100 100 100 100 100 100 100 99 100 100 100 100 100 100 100 100 100 80 100 100 100 100 100 84 9 5 5 5 27 51 98 74 62 10 51 10 21 90 95
60 100 100 100 100 100 100 100 100 100 100 100 100 100 100 100 100 100 100 100 100 100 100 100 100 100 100 100 100 78 96 100 100 98 92 99 5 76 94 90 46 35 27
57 90 100 100 100 100 100 100 100 100 100 100 100 100 100 100 100 100 100 100 100 100 100 100 100 99 55 95 100 100 64 100 99 96 13 99 99 79 5 5 9 15 17
75 73 100 100 100 100 100 100 100 100 100 100 100 100 100 100 100 100 100 100 100 100 100 100 100 100 81 98 100 100 100 100 100 100 100 100 89 98 31 65 100 100 100
94 100 98 100 100 100 100 100 100 100 100 100 100 100 100 100 100 100 100 100 100 100 100 100 100 100 88 90 100 100 100 100 72 100 100 88 24 35 5 14 33 97 100
88 90 100 100 100 100 100 100 100 100 100 100 100 100 100 100 100 100 100 100 100 100 100 100 100 100 100 98 99 100 100 100 100 62 94 80 9 17 14 100 100 100 88
70 89 92 100 100 100 100 100 100 100 100 100 100 100 100 100 100 100 100 100 100 100 100 100 100 100 100 100 100 100 100 99 100 92 68 57 36 99 27 100 93 52 100
100 100 86 100 100 100 100 100 100 100 100 100 100 100 100 100 100 100 100 100 100 100 100 100 100 100 100 100 100 100 100 100 100 100 100 83 100 100 100 89 88 92 54
100 100 98 100 100 100 100 100 100 100 100 100 100 100 100 100 100 100 100 100 100 100 100 100 100 100 100 100 100 100 100 100 100 100 100 91 99 100 100 100 96 100 100
100 100 100 100 100 100 100 100 100 100 100 100 100 100 100 100 100 100 100 100 100 100 100 100 100 100 100 100 100 100 100 100 100 100 100 100 100 100 98 98 100 100 100
100 100 100 100 100 100 100 100 100 100 100 100 100 100 100 100 100 100 100 100 100 100 100 100 100 100 100 100 100 100 100 100 100 100 100 100 100 100 100 97 100 100 98
100 100 100 100 100 100 100 100 100 100 100 100 100 100 100 100 100 100 100 100 100 100 100 100 100 100 99 99 99 88 100 100 100 100 100 100 100 95 78 33 28 37 38
100 100 100 100 100 100 100 100 100 100 100 100 100 100 100 100 100 100 100 100 100 100 100 100 100 100 100 100 100 99 100 100 100 100 100 100 100 100 42 46 94 100 50
100 100 100 100 100 100 100 100 100 100 100 100 100 100 100 100 100 100 100 100 100 100 100 100 100 100 100 100 100 100 100 82 82 95 96 100 77 87 37 98 83 30 5
100 96 100 100 100 100 100 100 100 100 100 100 100 100 100 100 100 100 100 100 100 100 100 100 100 100 100 100 100 89 91 100 90 100 56 75 71 100 48 89 58 92 5